Starlink 33676

operational
NORAD ID: 63403 Int'l Des: 2025-065 Owner: SPXS Country: US Constellation: starlink
LEOCIRCULAR

About Starlink 33676

Description loading...

Live Position

Loading 3D Globe...

Upcoming Passes

Altitude History

Altitude vs Time

uPlot chart will show altitude changes over time

Two-Line Element Set

1 63403U 25065E 25347.00020765 .00034783 00000-0 12665-2 0 9992
2 63403 42.9958 236.5081 0000373 164.1370 195.9493 15.27605954 39584
Epoch: Dec 13, 2025 • Age: 14 hours

Current Status

Altitude 488.2 km
Velocity 7.62 km/s
Sub-Earth Point -21.92°S, 84.47°W
Launch Date Mar 31, 2025
Age 0.7 years
Type internet

Technical Details

Classification Payload
Mass 575.00 kg
Dry Mass 530.00 kg
Total Mass 575.00 kg
Length 0.30 m
Diameter 4.10 m
Span 29.00 m
Shape Box + pan
Manufacturer SPXS
Bus Type Starlink V2MO
Phase Status In Orbit
Owner/State SPXS/US

Large Constellations

Loading constellations...